[Iaude] MPEC V216: 2023 VN7 [a=0.86,e=0.19,i=4.7,H=25.3]
    mpec at marsden.cfa.harvard.edu 
    mpec at marsden.cfa.harvard.edu
       
    Sun Nov 12 10:35:34 EST 2023
    
    
  
M.P.E.C. 2023-V216                            Issued 2023 November 12, 15:33 UT
     The Minor Planet Electronic Circulars contain information on unusual
         minor planets, routine data on comets and natural satellites,
         and occasional editorial announcements.  They are published
    on behalf of Division F of the International Astronomical Union by the
          Minor Planet Center, Smithsonian Astrophysical Observatory,
                          Cambridge, MA 02138, U.S.A.
			  
             Prepared using the Tamkin Foundation Computer Network
                              MPC at CFA.HARVARD.EDU
            URL https://www.minorplanetcenter.net/    ISSN 1523-6714
                                    2023 VN7                                    
Observations:
     K23V07N* C2023 11 11.26161005 38 31.042-37 42 47.66         17.60oVEV216W68
     K23V07N  C2023 11 11.26342405 38 25.202-37 42 26.17         18.98oVEV216W68
     K23V07N  C2023 11 11.29003505 37 00.583-37 36 58.64         17.93oVEV216W68
     K23V07N  C2023 11 11.30657205 36 08.050-37 33 29.45         18.62oVEV216W68
     K23V07N KC2023 11 11.40474405 31 59.99 -37 06 44.0          18.2 GVEV216474
     K23V07N KC2023 11 11.40539905 31 58.03 -37 06 35.9          18.3 GVEV216474
     K23V07N KC2023 11 11.40605205 31 56.09 -37 06 28.5          17.9 GVEV216474
     K23V07N KC2023 11 11.40648705 31 54.83 -37 06 23.3          18.4 GVEV216474
     K23V07N  C2023 11 11.43559105 30 20.208-37 11 36.64         18.72cVEV216T05
     K23V07N  C2023 11 11.43604305 30 19.013-37 11 32.14         18.82cVEV216T05
     K23V07N  C2023 11 11.43649605 30 17.436-37 11 26.09         18.80cVEV216T05
     K23V07N  C2023 11 11.43740005 30 14.602-37 11 13.99         18.89cVEV216T05
     K23V07N KC2023 11 11.60867705 21 32.11 -36 22 51.4          18.4 GVEV216474
     K23V07N KC2023 11 11.60954705 21 29.35 -36 22 39.6          17.8 GVEV216474
     K23V07N KC2023 11 11.60998005 21 27.96 -36 22 32.6          17.8 GVEV216474
     K23V07N KC2023 11 11.61084905 21 25.26 -36 22 20.0          17.5 GVEV216474
     K23V07N  C2023 11 11.84268 05 10 48.20 -35 23 10.3          18.4 GVEV216M28
     K23V07N  C2023 11 11.84470 05 10 42.02 -35 22 41.6          18.4 GVEV216M28
     K23V07N  C2023 11 11.84690 05 10 35.44 -35 22 11.0          18.5 GVEV216M28
     K23V07N KB2023 11 12.01142805 02 45.816-34 39 14.48         19.6 VZEV216Y05
     K23V07N KB2023 11 12.01478105 02 35.720-34 38 24.67         19.2 VZEV216Y05
     K23V07N KB2023 11 12.01809305 02 25.747-34 37 35.58         19.3 VZEV216Y05
     K23V07N |C2023 11 12.26141 04 50 09.57 -33 28 12.5          17.6 VuEV216807
     K23V07N |C2023 11 12.26632 04 49 54.34 -33 26 43.6          18.1 VuEV216807
     K23V07N |C2023 11 12.27121 04 49 39.14 -33 25 14.6          18.1 VuEV216807
     K23V07N KC2023 11 12.35267 04 46 29.10 -32 55 48.7          17.3 RqEV216E94
     K23V07N KC2023 11 12.36152 04 46 03.61 -32 53 19.1          17.2 RqEV216E94
     K23V07N KC2023 11 12.37035 04 45 38.01 -32 50 49.7          17.3 RqEV216E94
Observer details:
474 Mount John Observatory, Lake Tekapo.  Observers A. C. Gilmore, P. M.
    Kilmartin.  Measurer P. M. Kilmartin.  1.0-m f/7.7 reflector + CCD.
807 Cerro Tololo Observatory, La Serena.  Observers T. Linder, R. Holmes, L.
    Horn.  0.61-m f/6.5 Dall-Kirkham Astrograph + CCD.
E94 Possum Observatory, Gisborne.  Observer J. Drummond.  0.41-m f/4.5
    Newtonian + CCD.
M28 Lesedi Telescope-SAAO Observatory, Sutherland.  Observers N. Erasmus, S.
    Potter, C. van Gend, S. Chandra, H. Worters.  Measurers T. Ngwane, N.
    Erasmus.  1.0-m f/8 Reflector + CCD.
T05 ATLAS-HKO, Haleakala.  Observers L. Denneau, R. Siverd, J. Tonry, H.
    Weiland.  Measurers L. Denneau, N. Erasmus, A. Fitzsimmons, A. Lawrence,
    J. Robinson, R. Siverd, J. Tonry, H. Weiland.  0.5-m Reflector + CCD.
W68 ATLAS Chile, Rio Hurtado.  Observers L. Denneau, R. Siverd, J. Tonry, H.
    Weiland.  Measurers L. Denneau, N. Erasmus, A. Fitzsimmons, A. Lawrence,
    J. Robinson, R. Siverd, J. Tonry, H. Weiland.  0.5-m Reflector + CCD.
Y05 SONEAR Wykrota-CEAMIG, Serra da Piedade.  Observer C. Jacques.  0.45-m
    f/2.9 reflector + CMO.
Orbital elements:
2023 VN7                                                 Earth MOID = 0.0143 AU
Epoch 2023 Sept. 13.0 TT = JDT 2460200.5                Veres                   
M  68.46418              (2000.0)            P               Q                  
n   1.24607126     Peri.  196.85354     -0.26256917     +0.96238797             
a   0.8552783      Node    57.97339     -0.87553012     -0.20723271             
e   0.1942224      Incl.    4.72001     -0.40559147     -0.17568153             
P   0.79           H   25.37          G   0.15           U   6                  
Residuals in seconds of arc
231111 W68  0.2-  0.3+    231111 T05  0.8+  0.5-    231112 Y05  0.9+  0.3-
231111 W68  1.1-  0.0     231111 T05  1.2+  0.5+    231112 Y05  0.8+  0.5-
231111 W68  0.4-  0.0     231111 474  1.0+  0.2+    231112 807  0.1+  0.2-
231111 W68  1.1+  1.0-    231111 474  0.6+  0.5-    231112 807  0.2+  0.0
231111 474  0.1-  0.2-    231111 474  0.3+  0.2+    231112 807  0.3-  0.1+
231111 474  0.3-  0.3+    231111 474  0.6+  0.2+    231112 E94  0.1+  0.4-
231111 474  0.3-  0.0     231111 M28  1.3-  1.2+    231112 E94  0.3+  0.2+
231111 474  0.1+  0.2+    231111 M28  2.3-  1.4+    231112 E94  0.4-  0.3+
231111 T05  0.3-  0.1+    231111 M28  1.4-  0.9+
231111 T05  2.5+  1.0-    231112 Y05  1.1+  0.4-
Ephemeris:
2023 VN7                 a,e,i = 0.86, 0.19, 5                   q = 0.6892
Date    TT    R. A. (2000) Decl.     Delta      r    Elong.  Phase     V
2023 10 13    11 10 42.2 -29 35 43   0.08836 0.9277    35.8   141.0    26.9
...
2023 10 28    10 20 53.2 -34 37 22   0.04659 0.9680    55.3   122.4    23.7
...
2023 11 05    09 04 43.3 -39 51 26   0.02647 0.9853    75.2   103.3    21.2
...
2023 11 11    05 51 03.8 -38 32 29   0.01551 0.9961   111.7    67.5    18.7
2023 11 12    05 02 40.0 -34 43 07   0.01480 0.9977   120.9    58.3    18.3
2023 11 13    04 16 27.3 -29 27 15   0.01461 0.9993   130.2    49.2    18.0
...
2023 11 19    01 37 41.7 +01 04 25   0.02291 1.0075   146.0    33.3    18.6
...
2023 11 27    00 40 53.2 +14 35 07   0.04335 1.0155   130.3    47.8    20.4
...
2023 12 12    00 20 04.8 +21 38 39   0.08528 1.0209   112.9    62.7    22.3
M. P. C. Staff               (C) Copyright 2023 MPC           M.P.E.C. 2023-V216
    
    
More information about the Iaude
mailing list